カタログに戻る

YAOGAN 11 DEB

運用中軍事SSO
NORAD 38175·DEBRIS·🇨🇳 China

打ち上げ Sep 22, 2010 から Jiuquan Satellite Launch Center

Loading…

次のパス (今後24時間)

TLE

最新Source: Space-Track

元期: Sep 13, 2026, 04:20 UTC

1 38175U 10047E   26256.18076085  .00001079  00000-0  26541-3 0  9990
2 38175  98.0913 336.7204 0165938 329.9998  29.1765 14.46336769275690

AllMySatでYAOGAN 11 DEBをリアルタイム追跡

Download on the App Store